Date,TemperatureHighF,TemperatureAvgF,TemperatureLowF,DewpointHighF,DewpointAvgF,DewpointLowF,HumidityHigh,HumidityAvg,HumidityLow,PressureMaxIn,PressureMinIn,WindSpeedMaxMPH,WindSpeedAvgMPH,GustSpeedMaxMPH,PrecipitationSumIn
2013-2-1,44,35,25,31,16,9,76,49,27,30.47,30.20,12,3,18,0.00
2013-2-2,52,36,23,40,25,14,97,68,36,30.38,30.16,7,1,10,0.11
2013-2-3,59,44,30,39,31,27,98,67,32,30.22,30.10,8,1,21,0.01
2013-2-4,53,43,32,34,30,26,87,63,39,30.14,29.99,3,1,8,0.00
2013-2-5,54,51,46,52,45,34,97,80,58,30.07,29.96,6,1,7,0.05
2013-2-6,69,54,44,51,41,35,98,67,30,30.20,30.07,5,1,8,0.00
2013-2-7,52,49,47,49,46,36,96,90,56,30.12,29.92,8,2,9,0.17
2013-2-8,53,46,33,50,43,31,97,89,68,30.27,29.94,15,2,18,0.10
2013-2-9,66,45,28,37,31,26,96,66,23,30.34,30.17,6,1,11,0.00
2013-2-10,58,53,48,57,47,35,97,80,54,30.19,29.95,10,2,17,0.81
2013-2-11,59,53,48,57,52,47,98,96,89,30.18,29.97,8,1,14,0.34
2013-2-12,48,45,42,47,43,38,98,92,68,30.17,29.79,7,1,11,0.45
2013-2-13,48,44,34,46,41,33,98,90,77,30.05,29.74,9,2,16,0.02
2013-2-14,58,43,30,40,36,30,98,78,45,30.14,30.05,6,1,10,0.01
2013-2-15,61,47,34,41,36,33,97,70,44,30.16,30.05,12,2,15,0.00
2013-2-16,43,36,27,32,20,12,70,53,30,30.26,30.08,14,3,23,0.00
2013-2-17,51,36,18,21,16,11,89,49,21,30.36,30.24,7,1,9,0.00
2013-2-18,61,50,35,37,29,16,65,46,34,30.30,29.95,15,4,19,0.00
2013-2-19,58,47,37,47,33,20,97,63,27,30.25,29.95,13,2,19,0.48
2013-2-20,43,36,25,25,21,13,89,58,30,30.30,30.16,10,2,12,0.00
2013-2-21,62,46,31,47,31,17,95,62,25,30.18,29.88,8,2,13,1.03
2013-2-22,54,50,47,51,48,46,97,94,87,30.07,29.93,5,1,11,0.42
2013-2-23,54,47,38,49,45,38,98,93,82,29.98,29.89,7,1,10,0.11
2013-2-24,63,42,31,41,35,30,98,82,37,30.09,29.98,7,2,12,0.01
2013-2-25,48,48,47,46,46,46,94,94,93,29.68,29.53,10,5,25,0.50
2013-2-26,50,47,43,49,40,33,96,78,60,29.83,29.47,12,4,19,0.32
2013-2-28,42,38,34,31,28,26,88,65,55,30.09,29.97,13,3,18,0.00